Location: *
(55.5817°S, 142.4781°W)
Time: 08:19:11
(UTC+00:00)

ACS3 Solar Sail - Pass Details

Date: 29 April 2025
Orbit: 934 x 1009 km, 97.5° (Epoch: 18 May)

Event Time Altitude Azimuth Distance (km) Brightness Sun altitude
Rises 12:03:11 0° 80° (E) 3,686 5.3 -39.3°
Reaches altitude 10° 12:06:32 10° 99° (E) 2,761 4.7 -38.9°
Maximum altitude 12:10:17 17° 136° (SE) 2,312 4.3 -38.5°
Drops below altitude 10° 12:14:04 10° 174° (S) 2,804 4.6 -38.1°
Sets 12:17:30 0° 192° (SSW) 3,770 5.1 -37.7°
